Torna al catalogo

COSMOS 1275 DEB

AttivoPO
NORAD 42213·DEBRIS·🇷🇺 Russia

Lanciato Jun 4, 1981 da Plesetsk Cosmodrome

Loading…

Prossimi Passaggi (prossime 24 ore)

TLE

In scadenzaSource: Space-Track

Epoca: Sep 10, 2026, 00:28 UTC

1 42213U 81053UD  26253.01970207  .00002572  00000-0  11019-2 0  9993
2 42213  82.8193   4.6491 0043130 224.9169 134.8522 14.24053645216180

Traccia COSMOS 1275 DEB in tempo reale con AllMySat

Download on the App Store